This is the latest recevied weather packets stored in our database for station/object PA1CD-13. If no packets are shown the sender has not sent any weather packets the latest 10 day(s).
| Time | Temp. | Humidity | Pressure | Rain* | Wind** | Luminosity | Snow |
|---|---|---|---|---|---|---|---|
| 1777454765 | 14.44° C | 48% | 1028 hPa | 0 mm | - | 677 W/m² | - |
| 1777454644 | 14.44° C | 49% | 1028 hPa | 0 mm | - | 677 W/m² | - |
| 1777454526 | 15° C | 50% | 1028 hPa | 0 mm | - | 673 W/m² | - |
| 1777454405 | 15° C | 51% | 1028 hPa | 0 mm | - | 673 W/m² | - |
| 1777454285 | 15° C | 50% | 1028 hPa | 0 mm | - | 700 W/m² | - |
| 1777454165 | 15° C | 51% | 1028.1 hPa | 0 mm | - | 700 W/m² | - |
| 1777454044 | 15° C | 51% | 1028.1 hPa | 0 mm | - | 654 W/m² | - |
| 1777453924 | 14.44° C | 52% | 1028.1 hPa | 0 mm | - | 688 W/m² | - |
| 1777453804 | 14.44° C | 53% | 1028.2 hPa | 0 mm | - | 726 W/m² | - |
| 1777453683 | 14.44° C | 53% | 1028 hPa | 0 mm | - | 726 W/m² | - |
| 1777453564 | 14.44° C | 52% | 1028.1 hPa | 0 mm | - | 693 W/m² | - |
| 1777453444 | 14.44° C | 53% | 1028.1 hPa | 0 mm | - | 622 W/m² | - |
| 1777453324 | 14.44° C | 54% | 1028.2 hPa | 0 mm | - | 622 W/m² | - |
| 1777453193 | 14.44° C | 54% | 1028.2 hPa | 0 mm | - | 622 W/m² | - |
| 1777453072 | 14.44° C | 54% | 1028.2 hPa | 0 mm | - | 610 W/m² | - |
| 1777452954 | 14.44° C | 55% | 1028.2 hPa | 0 mm | - | 631 W/m² | - |
| 1777452833 | 14.44° C | 52% | 1028.1 hPa | 0 mm | - | 631 W/m² | - |
| 1777452713 | 13.89° C | 54% | 1028.1 hPa | 0 mm | - | 626 W/m² | - |
| 1777452593 | 13.89° C | 54% | 1028.1 hPa | 0 mm | - | 626 W/m² | - |
| 1777452474 | 13.89° C | 54% | 1028.2 hPa | 0 mm | - | 626 W/m² | - |
| 1777452352 | 13.89° C | 53% | 1028.2 hPa | 0 mm | - | 621 W/m² | - |
| 1777452232 | 13.89° C | 53% | 1028.2 hPa | 0 mm | - | 615 W/m² | - |
| 1777452114 | 13.89° C | 53% | 1028.3 hPa | 0 mm | - | 612 W/m² | - |
| 1777451992 | 13.89° C | 53% | 1028.2 hPa | 0 mm | - | 608 W/m² | - |
| 1777451872 | 13.89° C | 54% | 1028.2 hPa | 0 mm | - | 605 W/m² | - |
* Rain latest hour (hover to see other rain measurements)
** Current wind speed in m/s (hover to see current wind gust speed)